Date String (YYYY-MM-DD hh:mm:ss) UTC,Instrument flags,Ambient pressure (hPa),Sample flow (lpm),Bypass flow (lpm),Sample temperature (°C),Ambient temperature (°C),ASC tube jacket temperature (°C),LED temperature (°C),Box temperature (°C),Sample RH (%),Span deviation,Mass concentration (μg/m³),Mass concentration (μg/m³),Mass concentration (μg/m³)
DateTimeUTC,F1_M11,P_M11,Q1_M11,Q2_M11,T1_M11,T2_M11,T3_M11,T4_M11,T5_M11,U1_M11,ZSPAN_M11,X0_M11,X2_M11,X1_M11
2021-11-12 21:00:00,,0830.8,4.99,0.00,26.0,25.3,00.0,35.0,27.9,10.9,0000.0,0016.02,0003.93,0002.81
2021-11-12 21:01:00,,0830.7,5.01,0.00,26.0,25.3,00.0,35.0,27.9,10.9,0000.0,0015.92,0003.90,0002.80
2021-11-12 21:02:00,,0830.7,4.98,0.00,26.0,25.3,00.0,35.0,27.9,10.9,0000.0,0015.33,0003.90,0002.80
2021-11-12 21:03:00,,0830.7,5.01,0.00,26.0,25.3,00.0,35.0,27.9,10.9,0000.0,0014.23,0003.92,0002.81
2021-11-12 21:04:00,,0830.8,5.00,0.00,26.0,25.3,00.0,35.0,27.9,10.9,0000.0,0014.30,0003.98,0002.80
2021-11-12 21:05:00,,0830.9,4.99,0.00,26.0,25.3,00.0,35.0,27.9,10.9,0000.0,0014.33,0004.01,0002.80
2021-11-12 21:06:00,,0830.9,5.00,0.00,26.0,25.3,00.0,35.0,27.9,10.9,0000.0,0014.37,0004.10,0002.80
2021-11-12 21:07:00,,0830.9,5.00,0.00,26.0,25.3,00.0,35.0,27.9,10.9,0000.0,0014.83,0004.17,0002.82
2021-11-12 21:08:00,,0830.9,5.00,0.00,26.0,25.3,00.0,35.0,27.9,10.9,0000.0,0015.68,0004.22,0002.83
2021-11-12 21:09:00,,0830.9,5.00,0.00,26.0,25.3,00.0,35.0,27.9,10.9,0000.0,0015.96,0004.27,0002.84
2021-11-12 21:10:00,,0830.9,4.99,0.00,26.0,25.3,00.0,35.0,27.9,10.9,0000.0,0015.75,0004.26,0002.86
2021-11-12 21:11:00,,0830.9,5.01,0.00,26.0,25.3,00.0,35.0,27.9,10.9,0000.0,0016.91,0004.30,0002.88
2021-11-12 21:12:00,,0830.9,5.00,0.00,26.0,25.3,00.0,35.0,27.9,10.9,0000.0,0017.71,0004.37,0002.90
2021-11-12 21:13:00,,0830.9,5.01,0.00,26.0,25.3,00.0,35.0,27.9,10.9,0000.0,0018.47,0004.39,0002.90
2021-11-12 21:14:00,,0831.0,4.99,0.00,26.0,25.3,00.0,35.0,27.9,10.9,0000.0,0018.85,0004.40,0002.90
2021-11-12 21:15:00,,0830.9,5.01,0.00,26.0,25.3,00.0,35.0,27.9,10.9,0000.0,0017.65,0004.39,0002.91
2021-11-12 21:16:00,,0830.9,4.99,0.00,26.0,25.3,00.0,35.0,27.9,10.9,0000.0,0017.17,0004.40,0002.93
2021-11-12 21:17:00,,0830.9,5.01,0.00,26.0,25.3,00.0,35.0,27.9,10.9,0000.0,0017.39,0004.41,0002.93
2021-11-12 21:18:00,,0830.9,5.01,0.00,26.1,25.3,00.0,35.0,27.9,10.9,0000.0,0016.52,0004.35,0002.92
2021-11-12 21:19:00,,0830.9,4.98,0.00,26.1,25.3,00.0,35.0,27.9,10.8,0000.0,0016.44,0004.29,0002.90
2021-11-12 21:20:00,,0830.9,5.01,0.00,26.1,25.3,00.0,35.0,27.9,10.8,0000.0,0015.37,0004.28,0002.90
2021-11-12 21:21:00,,0830.9,5.00,0.00,26.1,25.3,00.0,35.0,27.9,10.8,0000.0,0015.19,0004.23,0002.90
2021-11-12 21:22:00,,0830.9,4.99,0.00,26.1,25.3,00.0,35.0,27.9,10.8,0000.0,0014.25,0004.21,0002.88
2021-11-12 21:23:00,,0830.9,5.00,0.00,26.1,25.4,00.0,35.0,27.9,10.9,0000.0,0013.29,0004.15,0002.87
2021-11-12 21:24:00,,0831.1,5.00,0.00,26.1,25.4,00.0,35.0,27.9,10.8,0000.0,0013.62,0004.14,0002.88
2021-11-12 21:25:00,,0831.0,4.99,0.00,26.1,25.4,00.0,35.0,27.9,10.8,0000.0,0013.93,0004.11,0002.89
2021-11-12 21:26:00,,0831.1,5.00,0.00,26.1,25.4,00.0,35.0,27.9,10.8,0000.0,0014.63,0004.11,0002.91
2021-11-12 21:27:00,,0831.0,5.00,0.00,26.1,25.4,00.0,35.0,27.9,10.9,0000.0,0014.59,0004.12,0002.94
2021-11-12 21:28:00,,0831.0,5.01,0.00,26.1,25.4,00.0,35.1,28.0,10.9,0000.0,0014.69,0004.04,0002.95
2021-11-12 21:29:00,,0831.0,5.01,0.00,26.1,25.4,00.0,35.1,27.9,10.9,0000.0,0016.34,0004.09,0002.97
2021-11-12 21:30:00,,0831.0,5.00,0.00,26.1,25.4,00.0,35.1,28.0,10.8,0000.0,0016.49,0004.12,0003.01
2021-11-12 21:31:00,,0831.0,5.00,0.00,26.1,25.4,00.0,35.1,28.0,10.8,0000.0,0016.99,0004.12,0003.03
2021-11-12 21:32:00,,0831.0,5.01,0.00,26.1,25.4,00.0,35.1,28.0,10.8,0000.0,0017.06,0004.19,0003.05
2021-11-12 21:33:00,,0831.1,5.00,0.00,26.1,25.4,00.0,35.1,28.0,10.8,0000.0,0016.78,0004.20,0003.09
2021-11-12 21:34:00,,0831.0,4.99,0.00,26.2,25.5,00.0,35.1,28.0,10.8,0000.0,0016.72,0004.19,0003.10
2021-11-12 21:35:00,,0831.1,5.01,0.00,26.2,25.5,00.0,35.1,28.0,10.8,0000.0,0015.74,0004.16,0003.11
2021-11-12 21:36:00,,0831.0,4.99,0.00,26.2,25.5,00.0,35.1,28.0,10.8,0000.0,0015.75,0004.12,0003.12
2021-11-12 21:37:00,,0830.9,5.01,0.00,26.2,25.5,00.0,35.1,28.1,10.9,0000.0,0015.02,0004.12,0003.13
2021-11-12 21:38:00,,0830.9,4.99,0.00,26.2,25.5,00.0,35.1,28.1,10.9,0000.0,0014.64,0004.07,0003.13
2021-11-12 21:39:00,,0831.0,5.00,0.00,26.2,25.5,00.0,35.1,28.1,10.8,0000.0,0014.39,0004.08,0003.13
2021-11-12 21:40:00,,0830.9,5.01,0.00,26.2,25.5,00.0,35.1,28.1,10.8,0000.0,0013.04,0004.07,0003.15
2021-11-12 21:41:00,,0830.9,5.01,0.00,26.2,25.5,00.0,35.1,28.1,10.8,0000.0,0011.97,0004.06,0003.14
2021-11-12 21:42:00,,0830.9,4.99,0.00,26.2,25.5,00.0,35.1,28.1,10.8,0000.0,0011.43,0004.07,0003.14
2021-11-12 21:43:00,,0830.9,5.01,0.00,26.2,25.5,00.0,35.1,28.1,10.8,0000.0,0011.30,0004.02,0003.14
2021-11-12 21:44:00,,0830.9,4.99,0.00,26.2,25.5,00.0,35.2,28.1,10.8,0000.0,0011.24,0004.00,0003.14
2021-11-12 21:45:00,,0830.9,4.99,0.00,26.2,25.5,00.0,35.2,28.1,10.8,0000.0,0011.86,0004.01,0003.15
2021-11-12 21:46:00,,0830.9,5.02,0.00,26.2,25.6,00.0,35.2,28.1,10.8,0000.0,0011.71,0004.06,0003.16
2021-11-12 21:47:00,,0830.9,5.00,0.00,26.3,25.6,00.0,35.2,28.1,10.9,0000.0,0011.61,0004.11,0003.16
2021-11-12 21:48:00,,0830.9,5.00,0.00,26.3,25.6,00.0,35.2,28.1,10.9,0000.0,0011.36,0004.11,0003.17
2021-11-12 21:49:00,,0830.9,5.00,0.00,26.3,25.6,00.0,35.2,28.2,10.9,0000.0,0012.41,0004.17,0003.16
2021-11-12 21:50:00,,0830.9,5.01,0.00,26.3,25.6,00.0,35.2,28.1,10.8,0000.0,0012.31,0004.24,0003.16
2021-11-12 21:51:00,,0830.8,5.00,0.00,26.3,25.6,00.0,35.2,28.2,10.8,0000.0,0012.04,0004.25,0003.16
2021-11-12 21:52:00,,0830.8,4.99,0.00,26.3,25.6,00.0,35.2,28.2,10.8,0000.0,0012.24,0004.25,0003.16
2021-11-12 21:53:00,,0830.8,5.01,0.00,26.3,25.7,00.0,35.2,28.2,10.8,0000.0,0012.65,0004.23,0003.16
2021-11-12 21:54:00,,0830.8,5.00,0.00,26.3,25.7,00.0,35.2,28.2,10.8,0000.0,0013.34,0004.25,0003.17
2021-11-12 21:55:00,,0830.8,4.99,0.00,26.3,25.7,00.0,35.3,28.2,10.8,0000.0,0014.94,0004.31,0003.17
2021-11-12 21:56:00,,0830.8,5.01,0.00,26.3,25.7,00.0,35.3,28.2,10.8,0000.0,0014.62,0004.35,0003.17
2021-11-12 21:57:00,,0830.8,5.01,0.00,26.4,25.7,00.0,35.3,28.2,10.8,0000.0,0014.61,0004.33,0003.17
2021-11-12 21:58:00,,0830.9,4.99,0.00,26.4,25.7,00.0,35.3,28.2,10.8,0000.0,0014.20,0004.32,0003.16
2021-11-12 21:59:00,,0830.9,5.01,0.00,26.4,25.7,00.0,35.3,28.2,10.8,0000.0,0014.61,0004.33,0003.15
